Weather History for KAWM - June, 2013

Change the Weather History Date:

Wednesday, June 26, 2013

  Actual Average (KMEM) Record (KMEM)
Temperature  
Mean Temperature 84 °F 82 °F  
Max Temperature 93 °F 91 °F 102 °F (1954)
Min Temperature 75 °F 73 °F 58 °F (1958)
Degree Days  
Heating Degree Days 0 0  
Month to date heating degree days 0  
Since 1 June heating degree days 0  
Since 1 July heating degree days 2964  
Cooling Degree Days 19 17  
Month to date cooling degree days 372  
Year to date cooling degree days 693  
Since 1 June cooling degree days 372  
Growing Degree Days 34 (Base 50)    
Moisture  
Dew Point 70 °F    
Average Humidity 63    
Maximum Humidity 87    
Minimum Humidity 42    
Precipitation  
Precipitation 0.00 in 0.10 in 2.11 in (1900)
Month to date precipitation 3.16  
Year to date precipitation 27.44  
Snow  
Snow 0.00 in 0.00 in - ()
Month to date snowfall 0.0  
Since 1 June snowfall 0.0  
Since 1 July snowfall 3.8  
Snow Depth -    
Sea Level Pressure  
Sea Level Pressure 29.90 in    
Wind  
Wind Speed 8 mph (SW)    
Max Wind Speed 14 mph    
Max Gust Speed 24 mph    
Visibility 10 miles    
Events      
T = Trace of Precipitation, MM = Missing Value Source: NWS Daily Summary

Daily Weather History Graph

Daily Weather History Graph

Search for Another Location

Airport or City:

Trip Planner

Search our weather history database for the weather conditions in past years. The results will help you decide how hot, cold, wet, or windy it might be!

Date:

Astronomy

Jun. 26, 2013 Rise Set
Actual Time 5:48 AM CDT 8:19 PM CDT
Civil Twilight 5:18 AM CDT 8:49 PM CDT
Nautical Twilight 4:41 AM CDT 9:25 PM CDT
Astronomical Twilight 4:01 AM CDT 10:06 PM CDT
Moon 10:52 PM CDT (6/26) 9:31 AM CDT (6/26)
Length of Visible Light 15h 30m
Length of Day
14h 30m
Waning Gibbous, 85% of the Moon is Illuminated
Jun 26
Waning Gibbous
Jun 29
Last Quarter
Jul 8
New
Jul 15
First Quarter
Jul 22
Full

Hourly Weather History & Observations

Time (CDT) Temp. Heat Index Dew Point Humidity Pressure Visibility Wind Dir Wind Speed Gust Speed Precip Events Conditions
12:53 AM 81.0 °F 84.1 °F 69.1 °F 67% 29.92 in 10.0 mi South 6.9 mph - N/A   Clear
1:53 AM 77.0 °F - 69.1 °F 76% 29.93 in 10.0 mi SSW 3.5 mph - N/A   Clear
2:53 AM 75.9 °F - 70.0 °F 82% 29.92 in 10.0 mi South 5.8 mph - N/A   Clear
3:53 AM 75.0 °F - 70.0 °F 84% 29.91 in 10.0 mi South 6.9 mph - N/A   Clear
4:53 AM 75.9 °F - 70.0 °F 82% 29.92 in 10.0 mi South 6.9 mph - N/A   Clear
5:53 AM 75.0 °F - 71.1 °F 87% 29.94 in 10.0 mi South 6.9 mph - N/A   Clear
6:53 AM 77.0 °F - 72.0 °F 84% 29.96 in 10.0 mi SSW 6.9 mph - N/A   Clear
7:53 AM 80.1 °F 84.2 °F 73.0 °F 79% 29.96 in 10.0 mi SSW 10.4 mph - N/A   Clear
8:53 AM 82.9 °F 88.8 °F 73.0 °F 72% 29.96 in 10.0 mi SW 9.2 mph 18.4 mph N/A   Clear
9:53 AM 86.0 °F 92.2 °F 72.0 °F 63% 29.94 in 10.0 mi SSW 6.9 mph 18.4 mph N/A   Clear
10:53 AM 88.0 °F 93.8 °F 71.1 °F 57% 29.94 in 10.0 mi SW 12.7 mph 24.2 mph N/A   Clear
11:53 AM 90.0 °F 95.4 °F 70.0 °F 52% 29.95 in 10.0 mi SW 12.7 mph 19.6 mph N/A   Clear
12:53 PM 90.0 °F 94.5 °F 69.1 °F 50% 29.94 in 10.0 mi SW 12.7 mph 18.4 mph N/A   Clear
1:53 PM 91.0 °F 94.3 °F 66.9 °F 45% 29.90 in 10.0 mi SW 11.5 mph 18.4 mph N/A   Clear
2:53 PM 91.9 °F 95.4 °F 66.9 °F 44% 29.89 in 10.0 mi Variable 6.9 mph 23.0 mph N/A   Clear
3:53 PM 93.0 °F 96.4 °F 66.9 °F 42% 29.86 in 10.0 mi WSW 9.2 mph 17.3 mph N/A   Clear
4:53 PM 91.9 °F 94.5 °F 66.0 °F 42% 29.84 in 10.0 mi WSW 13.8 mph 20.7 mph N/A   Clear
5:53 PM 91.9 °F 95.4 °F 66.9 °F 44% 29.83 in 10.0 mi SW 9.2 mph - N/A   Clear
6:53 PM 90.0 °F 93.6 °F 68.0 °F 48% 29.84 in 10.0 mi SW 8.1 mph - N/A   Scattered Clouds
7:53 PM 88.0 °F 92.1 °F 69.1 °F 53% 29.85 in 10.0 mi WSW 8.1 mph - N/A   Clear
8:53 PM 86.0 °F 90.1 °F 69.1 °F 57% 29.84 in 10.0 mi SW 4.6 mph - N/A   Clear
9:53 PM 84.9 °F 89.4 °F 70.0 °F 61% 29.86 in 10.0 mi SSW 5.8 mph - N/A   Clear
10:53 PM 84.0 °F 88.4 °F 70.0 °F 63% 29.85 in 10.0 mi SW 8.1 mph - N/A   Clear
11:53 PM 82.9 °F 87.5 °F 71.1 °F 67% 29.86 in 10.0 mi SW 6.9 mph - N/A   Clear